Location: Gouy
(50.0008°N, 3.2556°E)
Time: 12:39:59
(UTC+00:00)

MOZ.5/SAFIR/RUBIN 5/SL-8 - Pass Details

Date: 23 May 2024
Orbit: 671 x 700 km, 98.3° (Epoch: 16 June)

Event Time Altitude Azimuth Distance (km) Brightness Sun altitude
Exits shadow 01:18:25 24° 173° (S) 1,428 4.9 -16.3°
Maximum altitude 01:21:17 76° 256° (WSW) 722 3.7 -16.1°
Drops below altitude 10° 01:26:01 10° 343° (NNW) 2,159 7.0 -15.8°
Sets 01:28:17 0° 345° (NNW) 3,076 7.9 -15.7°
